Hourly Data Report for June 19, 2004

TORONTO CITY
ONTARIO

43°40'00.000" N
79°24'00.000" W
112.50 m
6158355
71508
XTO

Download Data

Hourly Data (June 2004)
Hourly Data Report for June 19, 2004
TIME
LST
Temp Definition
°C
Dew Point Definition
°C
Rel Hum Definition
%
Precip. Amount Definition
mm

Wind Dir Definition
10's deg

Wind Spd Definition
km/h
Visibility Definition
km
Stn Press Definition
kPa
Hmdx Definition


Wind Chill Definition


Weather Definition


00:00 19.7 14.5 72   LegendMM LegendMM LegendMM 100.10     LegendNANA
01:00 19.8 14.6 72   LegendMM LegendMM LegendMM 100.08     LegendNANA
02:00 17.3 14.2 82   LegendMM LegendMM LegendMM 100.12     LegendNANA
03:00 16.5 14.2 86   LegendMM LegendMM LegendMM 100.09     LegendNANA
04:00 15.9 13.8 87   LegendMM LegendMM LegendMM 100.08     LegendNANA
05:00 15.3 10.2 72   LegendMM LegendMM LegendMM 100.12     LegendNANA
06:00 14.2 7.5 64   LegendMM LegendMM LegendMM 100.13     LegendNANA
07:00 14.2 7.5 64   LegendMM LegendMM LegendMM 100.17     LegendNANA
08:00 14.9 7.3 60   LegendMM LegendMM LegendMM 100.23     LegendNANA
09:00 14.9 7.3 60   LegendMM LegendMM LegendMM 100.25     LegendNANA
10:00 15.2 8.1 63   LegendMM LegendMM LegendMM 100.31     LegendNANA
11:00 16.7 8.4 58   LegendMM LegendMM LegendMM 100.31     LegendNANA
12:00 17.9 7.9 52   LegendMM LegendMM LegendMM 100.31     LegendNANA
13:00 16.5 7.4 55   LegendMM LegendMM LegendMM 100.36     LegendNANA
14:00 17.0 7.6 54   LegendMM LegendMM LegendMM 100.38     LegendNANA
15:00 17.2 6.8 50   LegendMM LegendMM LegendMM 100.38     LegendNANA
16:00 17.1 6.8 51   LegendMM LegendMM LegendMM 100.41     LegendNANA
17:00 16.5 6.2 51   LegendMM LegendMM LegendMM 100.43     LegendNANA
18:00 15.5 4.6 48   LegendMM LegendMM LegendMM 100.48     LegendNANA
19:00 14.8 2.9 45   LegendMM LegendMM LegendMM 100.52     LegendNANA
20:00 14.0 1.7 43   LegendMM LegendMM LegendMM 100.55     LegendNANA
21:00 13.5 2.9 49   LegendMM LegendMM LegendMM 100.58     LegendNANA
22:00 12.6 4.9 59   LegendMM LegendMM LegendMM 100.58     LegendNANA
23:00 11.8 4.8 62   LegendMM LegendMM LegendMM 100.57     LegendNANA

Notes on Data Quality.

Legend

  • E = Estimated
  • M = Missing
  • NA = Not Available*
  • [empty] = Indicates an unobserved value
Date modified: